Montevideo, MN

2:55 PM CDT on May 20, 2018 (GMT -0500)
Montevideo-Chippewa County

Weather History for KMVE - May, 2013

Change the Weather History Date:

Friday, May 3, 2013

  Actual Average Record
Temperature  
Mean Temperature 36 °F -  
Max Temperature 48 °F 65 °F 91 °F (1955)
Min Temperature 24 °F 39 °F 21 °F (1967)
Degree Days  
Heating Degree Days 29    
Moisture  
Dew Point 24 °F    
Average Humidity 61    
Maximum Humidity 93    
Minimum Humidity 34    
Precipitation  
Precipitation 0.00 in - - ()
Sea Level Pressure  
Sea Level Pressure 30.31 in    
Wind  
Wind Speed 11 mph (NE)    
Max Wind Speed 18 mph    
Max Gust Speed 29 mph    
Visibility 10 miles    
Events      
Averages and records for this station are not official NWS values.
T = Trace of Precipitation, MM = Missing Value Source: NWS Daily Summary

Daily Weather History Graph

Daily Weather History Graph

Search for Another Location

Airport or City:

Astronomy

May. 03, 2013 Rise Set
Actual Time 6:08 AM CDT 8:31 PM CDT
Civil Twilight 5:36 AM CDT 9:03 PM CDT
Nautical Twilight 4:55 AM CDT 9:44 PM CDT
Astronomical Twilight 4:10 AM CDT 10:30 PM CDT
Moon 2:50 AM CDT (5/3) 2:11 PM CDT (5/3)
Length of Visible Light 15h 27m
Length of Day
14h 22m
Last Quarter, 37% of the Moon is Illuminated
May 3
Last Quarter
May 9
New
May 17
First Quarter
May 24
Full
May 31
Last Quarter

Hourly Weather History & Observations

Time (CDT) Temp. Windchill Dew Point Humidity Pressure Visibility Wind Dir Wind Speed Gust Speed Precip Events Conditions
12:14 AM 30.2 °F 21.9 °F 24.8 °F 80% 30.48 in 10.0 mi NNE 9.2 mph - N/A   Clear
12:33 AM 30.2 °F 22.6 °F 24.8 °F 80% 30.48 in 10.0 mi NNE 8.1 mph - N/A   Clear
12:54 AM 28.4 °F 20.4 °F 24.8 °F 86% 30.48 in 10.0 mi NE 8.1 mph - N/A   Clear
1:14 AM 28.4 °F 21.2 °F 24.8 °F 86% 30.47 in 10.0 mi NNE 6.9 mph - N/A   Clear
1:33 AM 28.4 °F 21.2 °F 24.8 °F 86% 30.47 in 10.0 mi NNE 6.9 mph - N/A   Clear
1:54 AM 28.4 °F 21.2 °F 24.8 °F 86% 30.46 in 10.0 mi North 6.9 mph - N/A   Clear
2:14 AM 28.4 °F 20.4 °F 24.8 °F 86% 30.46 in 10.0 mi NNE 8.1 mph - N/A   Clear
2:34 AM 26.6 °F 18.2 °F 24.8 °F 93% 30.45 in 10.0 mi North 8.1 mph - N/A   Clear
3:14 AM 26.6 °F 17.5 °F 24.8 °F 93% 30.44 in 10.0 mi NNE 9.2 mph - N/A   Clear
3:34 AM 26.6 °F 17.5 °F 24.8 °F 93% 30.43 in 10.0 mi NNE 9.2 mph - N/A   Clear
3:54 AM 26.6 °F 17.5 °F 23.0 °F 86% 30.43 in 10.0 mi NNE 9.2 mph - N/A   Clear
4:14 AM 26.6 °F 18.2 °F 23.0 °F 86% 30.43 in 10.0 mi NNE 8.1 mph - N/A   Clear
4:34 AM 26.6 °F 17.5 °F 23.0 °F 86% 30.43 in 10.0 mi NNE 9.2 mph - N/A   Clear
4:54 AM 26.6 °F 18.2 °F 23.0 °F 86% 30.43 in 10.0 mi NNE 8.1 mph - N/A   Clear
5:13 AM 26.6 °F 19.1 °F 23.0 °F 86% 30.43 in 10.0 mi NNE 6.9 mph - N/A   Clear
5:34 AM 24.8 °F 15.3 °F 23.0 °F 93% 30.41 in 10.0 mi NNE 9.2 mph - N/A   Clear
5:54 AM 24.8 °F 15.3 °F 23.0 °F 93% 30.40 in 10.0 mi NNE 9.2 mph - N/A   Clear
6:14 AM 26.6 °F 16.8 °F 23.0 °F 86% 30.40 in 10.0 mi NNE 10.4 mph - N/A   Clear
6:34 AM 26.6 °F 17.5 °F 23.0 °F 86% 30.40 in 10.0 mi NNE 9.2 mph - N/A   Clear
6:54 AM 26.6 °F 16.8 °F 23.0 °F 86% 30.40 in 10.0 mi NNE 10.4 mph - N/A   Clear
7:14 AM 28.4 °F 19.1 °F 24.8 °F 86% 30.40 in 10.0 mi NE 10.4 mph - N/A   Clear
7:34 AM 28.4 °F 18.5 °F 24.8 °F 86% 30.40 in 10.0 mi NNE 11.5 mph - N/A   Clear
7:54 AM 30.2 °F 21.3 °F 24.8 °F 80% 30.40 in 10.0 mi NNE 10.4 mph - N/A   Clear
8:14 AM 32.0 °F 21.6 °F 24.8 °F 75% 30.38 in 10.0 mi NNE 15.0 mph - N/A   Clear
8:34 AM 33.8 °F 23.2 °F 24.8 °F 70% 30.37 in 10.0 mi NE 17.3 mph 20.7 mph N/A   Clear
8:54 AM 33.8 °F 23.2 °F 24.8 °F 70% 30.36 in 10.0 mi NE 17.3 mph - N/A   Clear
9:14 AM 35.6 °F 26.2 °F 24.8 °F 65% 30.37 in 10.0 mi NE 15.0 mph - N/A   Clear
9:34 AM 35.6 °F 26.2 °F 24.8 °F 65% 30.36 in 10.0 mi NE 15.0 mph 19.6 mph N/A   Clear
9:54 AM 37.4 °F 28.9 °F 24.8 °F 60% 30.35 in 10.0 mi NE 13.8 mph 17.3 mph N/A   Clear
10:14 AM 39.2 °F 31.2 °F 26.6 °F 61% 30.35 in 10.0 mi NE 13.8 mph 20.7 mph N/A   Clear
10:34 AM 39.2 °F 30.5 °F 24.8 °F 56% 30.34 in 10.0 mi NE 16.1 mph 25.3 mph N/A   Clear
10:54 AM 39.2 °F 30.8 °F 24.8 °F 56% 30.33 in 10.0 mi NE 15.0 mph 20.7 mph N/A   Clear
11:14 AM 41.0 °F 33.9 °F 24.8 °F 53% 30.32 in 10.0 mi NNE 12.7 mph 16.1 mph N/A   Clear
11:34 AM 42.8 °F 35.4 °F 24.8 °F 49% 30.31 in 10.0 mi NNE 15.0 mph - N/A   Clear
11:54 AM 42.8 °F 35.1 °F 24.8 °F 49% 30.30 in 10.0 mi NE 16.1 mph 20.7 mph N/A   Clear
12:14 PM 44.6 °F 37.8 °F 24.8 °F 46% 30.29 in 10.0 mi ENE 15.0 mph 25.3 mph N/A   Clear
12:34 PM 44.6 °F 37.4 °F 24.8 °F 46% 30.27 in 10.0 mi NE 16.1 mph 26.5 mph N/A   Clear
12:54 PM 46.4 °F 40.1 °F 24.8 °F 43% 30.27 in 10.0 mi NE 15.0 mph 26.5 mph N/A   Clear
1:14 PM 46.4 °F 40.1 °F 24.8 °F 43% 30.26 in 10.0 mi ENE 15.0 mph 26.5 mph N/A   Clear
1:34 PM 48.2 °F - 24.8 °F 40% 30.25 in 10.0 mi NE 18.4 mph 27.6 mph N/A   Clear
1:54 PM 48.2 °F - 23.0 °F 37% 30.23 in 10.0 mi ENE 16.1 mph 27.6 mph N/A   Clear
2:14 PM 48.2 °F - 21.2 °F 34% 30.23 in 10.0 mi ENE 13.8 mph 24.2 mph N/A   Clear
2:34 PM 48.2 °F - 23.0 °F 37% 30.23 in 10.0 mi ENE 13.8 mph 19.6 mph N/A   Clear
2:54 PM 48.2 °F - 23.0 °F 37% 30.22 in 10.0 mi ENE 18.4 mph 26.5 mph N/A   Clear
3:14 PM 48.2 °F - 23.0 °F 37% 30.22 in 10.0 mi NE 18.4 mph 23.0 mph N/A   Clear
3:34 PM 48.2 °F - 21.2 °F 34% 30.21 in 10.0 mi ENE 18.4 mph 28.8 mph N/A   Scattered Clouds
3:54 PM 48.2 °F - 21.2 °F 34% 30.20 in 10.0 mi NE 16.1 mph 24.2 mph N/A   Scattered Clouds
4:14 PM 48.2 °F - 21.2 °F 34% 30.20 in 10.0 mi ENE 16.1 mph 24.2 mph N/A   Scattered Clouds
4:33 PM 46.4 °F 40.1 °F 21.2 °F 37% 30.20 in 10.0 mi ENE 15.0 mph 24.2 mph N/A   Scattered Clouds
4:54 PM 46.4 °F 39.2 °F 21.2 °F 37% 30.20 in 10.0 mi NE 18.4 mph 23.0 mph N/A   Mostly Cloudy
5:14 PM 46.4 °F 39.8 °F 23.0 °F 40% 30.19 in 10.0 mi East 16.1 mph - N/A   Mostly Cloudy
5:34 PM 46.4 °F 40.4 °F 23.0 °F 40% 30.20 in 10.0 mi ENE 13.8 mph 18.4 mph N/A   Scattered Clouds
5:54 PM 46.4 °F 40.1 °F 23.0 °F 40% 30.19 in 10.0 mi ENE 15.0 mph 21.9 mph N/A   Scattered Clouds
6:14 PM 46.4 °F 39.8 °F 23.0 °F 40% 30.19 in 10.0 mi ENE 16.1 mph - N/A   Clear
6:34 PM 44.6 °F 37.4 °F 24.8 °F 46% 30.19 in 10.0 mi ENE 16.1 mph - N/A   Clear
6:54 PM 44.6 °F 37.4 °F 24.8 °F 46% 30.19 in 10.0 mi East 16.1 mph - N/A   Scattered Clouds
7:14 PM 44.6 °F 37.8 °F 24.8 °F 46% 30.19 in 10.0 mi ENE 15.0 mph 20.7 mph N/A   Mostly Cloudy
7:34 PM 44.6 °F 37.4 °F 23.0 °F 43% 30.20 in 10.0 mi ENE 16.1 mph - N/A   Overcast
7:54 PM 42.8 °F 36.2 °F 24.8 °F 49% 30.20 in 10.0 mi ENE 12.7 mph - N/A   Overcast
8:14 PM 42.8 °F 37.0 °F 24.8 °F 49% 30.20 in 10.0 mi ENE 10.4 mph - N/A   Overcast
8:34 PM 42.8 °F 36.6 °F 24.8 °F 49% 30.19 in 10.0 mi ENE 11.5 mph - N/A   Overcast
8:54 PM 42.8 °F 36.2 °F 24.8 °F 49% 30.20 in 10.0 mi ENE 12.7 mph 18.4 mph N/A   Overcast
9:14 PM 42.8 °F 36.6 °F 24.8 °F 49% 30.19 in 10.0 mi ENE 11.5 mph - N/A   Overcast
9:34 PM 42.8 °F 36.2 °F 24.8 °F 49% 30.20 in 10.0 mi ENE 12.7 mph - N/A   Overcast
9:54 PM 42.8 °F 38.0 °F 24.8 °F 49% 30.21 in 10.0 mi ENE 8.1 mph - N/A   Overcast
10:14 PM 42.8 °F 38.0 °F 24.8 °F 49% 30.22 in 10.0 mi ENE 8.1 mph - N/A   Overcast
10:34 PM 42.8 °F 37.5 °F 24.8 °F 49% 30.21 in 10.0 mi ENE 9.2 mph - N/A   Overcast
10:54 PM 41.0 °F 37.1 °F 24.8 °F 53% 30.21 in 10.0 mi ENE 5.8 mph - N/A   Overcast
11:14 PM 41.0 °F 35.2 °F 24.8 °F 53% 30.20 in 10.0 mi ENE 9.2 mph - N/A   Overcast
11:34 PM 41.0 °F 35.8 °F 26.6 °F 57% 30.19 in 10.0 mi ENE 8.1 mph - N/A   Overcast
11:54 PM 41.0 °F 33.5 °F 28.4 °F 61% 30.19 in 10.0 mi East 13.8 mph - N/A   Overcast